Hourly Data Report for October 15, 2017

All times are specified in Local Standard Time (LST). Add 1 hour to adjust for Daylight Saving Time where and when it is observed.

NAPPAN AUTO
NOVA SCOTIA

45°45'34.400" N
64°14'29.200" W
19.80 m
8203702
71311
XNP

Download Data

Hourly Data (October 2017)
Hourly Data Report for October 15, 2017
Temp Definition
°C
Dew Point Temp Definition
°C
Rel Hum Definition
%
Wind Dir Definition
10's deg

Wind Spd Definition
km/h
Visibility Definition
km
Stn Press Definition
kPa
Hmdx Definition


Wind Chill Definition


Weather Definition


TIME
00:00 12.3 11.5 95 18 7   101.87     LegendNANA
01:00 12.4 11.5 94 14 6   101.90     LegendNANA
02:00 11.7 11.0 95 4 3   101.90     LegendNANA
03:00 11.4 11.1 98 20 5   101.87     LegendNANA
04:00 11.0 10.7 98 16 3   101.83     LegendNANA
05:00 10.1 9.9 98 2 2   101.85     LegendNANA
06:00 9.8 9.6 98 17 1   101.84     LegendNANA
07:00 9.8 9.5 98 6 2   101.86     LegendNANA
08:00 11.1 10.8 98 20 4   101.87     LegendNANA
09:00 12.0 11.7 98 20 6   101.82     LegendNANA
10:00 15.1 12.8 86 10 9   101.69     LegendNANA
11:00 16.1 10.7 70 16 11   101.54     LegendNANA
12:00 16.5 11.1 71 15 15   101.41     LegendNANA
13:00 18.5 12.3 67 17 23   101.19     LegendNANA
14:00 18.4 12.9 70 18 29   101.01     LegendNANA
15:00 18.9 13.0 69 17 30   100.83     LegendNANA
16:00 17.4 13.5 78 18 33   100.71     LegendNANA
17:00 16.9 13.9 83 18 34   100.51     LegendNANA
18:00 16.6 14.2 86 18 30   100.41     LegendNANA
19:00 17.0 14.7 87 18 30   100.29     LegendNANA
20:00 17.9 15.5 86 19 27   100.14     LegendNANA
21:00 18.8 16.2 85 20 36   100.04     LegendNANA
22:00 19.4 16.5 83 20 35   99.93     LegendNANA
23:00 20.2 16.9 81 21 44   99.82 25   LegendNANA

Notes on Data Quality.

Legend

  • E = Estimated
  • M = Missing
  • NA = Not Available
  • ‡ = Partner data that is not subject to review by the National Climate Archives
Date modified: